Location: Arrington
(35.8681°N, 86.7092°W)
Time: 06:26:00
(UTC+00:00)

ATLAS 2AS CENTAUR R/B - Pass Details

Date: 23 November 2019
Orbit: 926 x 1286 km, 63.7° (Epoch: 02 December)

Event Time Altitude Azimuth Distance (km) Brightness Sun altitude
Rises 02:16:13 0° 241° (WSW) 4,174 6.4 -44.4°
Reaches altitude 10° 02:19:18 10° 250° (WSW) 3,242 5.7 -45.0°
Enters shadow 02:24:59 32° 294° (WNW) 2,042 4.4 -46.1°
